Lakehurst NAS, NJ

9:29 PM EDT on October 21, 2017 (GMT -0400)
Lakehurst Naes

Weather History for KNEL - April, 2014

Change the Weather History Date:

Friday, April 18, 2014

  Actual Average Record
Temperature  
Mean Temperature 42 °F -  
Max Temperature 36 °F 58 °F 87 °F (2002)
Min Temperature 37 °F 42 °F 33 °F (1997)
Degree Days  
Heating Degree Days 22    
Moisture  
Dew Point 31 °F    
Average Humidity 66    
Maximum Humidity 83    
Minimum Humidity 50    
Precipitation  
Precipitation 0.00 in - - ()
Sea Level Pressure  
Sea Level Pressure 30.45 in    
Wind  
Wind Speed 8 mph (East)    
Max Wind Speed 12 mph    
Max Gust Speed -    
Averages and records for this station are not official NWS values.
T = Trace of Precipitation, MM = Missing Value Source: NWS Daily Summary

Daily Weather History Graph

Daily Weather History Graph

Search for Another Location

Airport or City:

Trip Planner

Search our weather history database for the weather conditions in past years. The results will help you decide how hot, cold, wet, or windy it might be!

Date:

Astronomy

Apr. 18, 2014 Rise Set
Actual Time 6:15 AM EDT 7:38 PM EDT
Civil Twilight 5:46 AM EDT 8:07 PM EDT
Nautical Twilight 5:12 AM EDT 8:41 PM EDT
Astronomical Twilight 4:37 AM EDT 9:17 PM EDT
Moon 11:21 PM EDT (4/18) 8:34 AM EDT (4/18)
Length of Visible Light 14h 20m
Length of Day
13h 23m
Waning Gibbous, 87% of the Moon is Illuminated
Apr 18
Waning Gibbous
Apr 22
Last Quarter
Apr 29
New
May 6
First Quarter
May 14
Full

Hourly Weather History & Observations

Time (EDT) Temp. Windchill Dew Point Humidity Pressure Visibility Wind Dir Wind Speed Gust Speed Precip Events Conditions
12:00 AM 39.0 °F 32.3 °F 30.0 °F 70% 30.59 in - East 10.4 mph - N/A   Overcast
1:00 AM 39.0 °F 32.3 °F 28.9 °F 67% 30.59 in - East 10.4 mph - N/A   Overcast
2:00 AM 39.0 °F 35.7 °F 30.0 °F 70% 30.58 in - East 4.6 mph - N/A   Overcast
3:00 AM 39.0 °F 31.8 °F 28.9 °F 67% 30.55 in - ENE 11.5 mph - N/A   Overcast
4:00 AM 39.0 °F 34.0 °F 28.9 °F 67% 30.52 in - East 6.9 mph - N/A   Overcast
5:00 AM 39.0 °F 32.8 °F 28.9 °F 67% 30.49 in - ENE 9.2 mph - N/A   Overcast
7:00 AM 37.9 °F 33.5 °F 28.9 °F 70% 30.52 in - NE 5.8 mph - N/A   Overcast
8:00 AM 37.9 °F 34.4 °F 28.9 °F 70% 30.54 in - NE 4.6 mph - N/A   Overcast
9:00 AM 39.0 °F 34.8 °F 28.9 °F 67% 30.53 in - NNE 5.8 mph - N/A   Overcast
10:00 AM 41.0 °F 34.7 °F 30.0 °F 65% 30.50 in - ENE 10.4 mph - N/A   Overcast
11:00 AM 43.0 °F 38.8 °F 30.9 °F 62% 30.49 in - ESE 6.9 mph - N/A   Overcast
12:00 PM 43.0 °F 40.3 °F 30.0 °F 60% 30.47 in - SE 4.6 mph - N/A   Mostly Cloudy
12:36 PM 44.6 °F 41.4 °F 30.2 °F 57% 30.46 in - Variable 5.8 mph - N/A   Scattered Clouds
1:00 PM 45.0 °F 40.6 °F 30.9 °F 58% 30.46 in - SE 8.1 mph - N/A   Scattered Clouds
2:00 PM 46.9 °F - 30.9 °F 54% 30.43 in - South 3.5 mph - N/A   Clear
3:00 PM 48.9 °F - 30.9 °F 50% 30.40 in - ENE 3.5 mph - N/A   Clear
4:00 PM 48.9 °F - 32.0 °F 52% 30.37 in - Variable 5.8 mph - N/A   Clear
5:00 PM 46.0 °F 42.5 °F 33.1 °F 61% 30.36 in - East 6.9 mph - N/A   Clear
6:00 PM 45.0 °F 40.6 °F 33.1 °F 63% 30.35 in - SE 8.1 mph - N/A   Clear
7:00 PM 43.0 °F 38.2 °F 32.0 °F 65% 30.32 in - ESE 8.1 mph - N/A   Clear
8:00 PM 41.0 °F 36.4 °F 32.0 °F 70% 30.31 in - SE 6.9 mph - N/A   Clear
9:00 PM 39.9 °F 37.8 °F 33.1 °F 77% 30.31 in - SE 3.5 mph - N/A   Clear
10:00 PM 39.0 °F 34.8 °F 34.0 °F 82% 30.30 in - SW 5.8 mph - N/A   Clear
11:00 PM 37.9 °F - 33.1 °F 83% 30.29 in - Calm Calm - N/A   Clear